Weather History for KMAI - August, 2013

Change the Weather History Date:

Sunday, August 18, 2013

  Actual Average Record
Temperature  
Mean Temperature 78 °F 82 °F  
Max Temperature 85 °F 91 °F - ()
Min Temperature 70 °F 72 °F - ()
Degree Days  
Heating Degree Days 0    
Month to date heating degree days 0  
Since 1 June heating degree days 0  
Since 1 July heating degree days 0  
Cooling Degree Days 13    
Month to date cooling degree days 313  
Year to date cooling degree days 1663  
Since 1 June cooling degree days 1227  
Growing Degree Days 26 (Base 50)    
Moisture  
Dew Point 72 °F    
Average Humidity 90    
Maximum Humidity 100    
Minimum Humidity 79    
Precipitation  
Precipitation 1.25 in 0.17 in - ()
Month to date precipitation 10.76 3.55  
Year to date precipitation 47.21 36.45  
Sea Level Pressure  
Sea Level Pressure 30.08 in    
Wind  
Wind Speed 4 mph (NE)    
Max Wind Speed 23 mph    
Max Gust Speed 29 mph    
Visibility 7 miles    
Events Fog , Rain , Thunderstorm    
T = Trace of Precipitation, MM = Missing Value Source: NWS Daily Summary

Daily Weather History Graph

Daily Weather History Graph

Search for Another Location

Airport or City:

Trip Planner

Search our weather history database for the weather conditions in past years. The results will help you decide how hot, cold, wet, or windy it might be!

Date:

Astronomy

Aug. 18, 2013 Rise Set
Actual Time 6:08 AM CDT 7:19 PM CDT
Civil Twilight 5:43 AM CDT 7:44 PM CDT
Nautical Twilight 5:13 AM CDT 8:14 PM CDT
Astronomical Twilight 4:42 AM CDT 8:45 PM CDT
Moon 5:21 PM CDT (8/18) 3:23 AM CDT (8/18)
Length of Visible Light 14h 01m
Length of Day
13h 10m
Waxing Gibbous, 92% of the Moon is Illuminated
Aug 18
Waxing Gibbous
Aug 20
Full
Aug 28
Last Quarter
Sep 5
New
Sep 12
First Quarter

Hourly Weather History & Observations

Time (CDT) Temp. Heat Index Dew Point Humidity Pressure Visibility Wind Dir Wind Speed Gust Speed Precip Events Conditions
12:53 AM 71.1 °F - 70.0 °F 96% 30.05 in 10.0 mi East 5.8 mph - N/A   Overcast
1:03 AM 71.6 °F - 69.8 °F 94% 30.05 in 10.0 mi East 5.8 mph - N/A   Mostly Cloudy
1:53 AM 70.0 °F - 69.1 °F 97% 30.04 in 10.0 mi NE 4.6 mph - N/A   Mostly Cloudy
2:02 AM 69.8 °F - 69.8 °F 100% 30.04 in 10.0 mi NE 4.6 mph - N/A   Overcast
2:53 AM 70.0 °F - 69.1 °F 97% 30.06 in 10.0 mi NE 3.5 mph - N/A   Overcast
3:53 AM 70.0 °F - 69.1 °F 97% 30.05 in 10.0 mi NE 3.5 mph - N/A   Overcast
4:53 AM 70.0 °F - 69.1 °F 97% 30.05 in 9.0 mi NE 4.6 mph - N/A   Overcast
5:12 AM 69.8 °F - 69.8 °F 100% 30.05 in 2.0 mi ENE 5.8 mph - N/A   Overcast
5:26 AM 69.8 °F - 69.8 °F 100% 30.06 in 1.5 mi ENE 5.8 mph - N/A   Overcast
5:53 AM 70.0 °F - 70.0 °F 100% 30.07 in 1.5 mi ENE 4.6 mph - N/A   Overcast
6:05 AM 69.8 °F - 69.8 °F 100% 30.07 in 2.5 mi East 5.8 mph - N/A   Overcast
6:29 AM 69.8 °F - 69.8 °F 100% 30.08 in 4.0 mi East 6.9 mph - N/A   Overcast
6:53 AM 71.1 °F - 70.0 °F 96% 30.07 in 4.0 mi ENE 6.9 mph - N/A   Overcast
7:07 AM 71.6 °F - 71.6 °F 100% 30.08 in 2.5 mi East 6.9 mph - N/A   Overcast
7:17 AM 71.6 °F - 71.6 °F 100% 30.08 in 1.5 mi East 6.9 mph - N/A   Overcast
7:31 AM 71.6 °F - 71.6 °F 100% 30.08 in 3.0 mi ENE 6.9 mph - N/A   Overcast
7:53 AM 72.0 °F - 72.0 °F 100% 30.09 in 6.0 mi East 6.9 mph - N/A   Overcast
8:53 AM 73.9 °F - 73.0 °F 97% 30.08 in 9.0 mi East 8.1 mph - N/A   Overcast
9:53 AM 75.9 °F - 73.0 °F 91% 30.10 in 10.0 mi East 6.9 mph - N/A   Overcast
10:39 AM 77.0 °F - 73.4 °F 89% 30.09 in 10.0 mi East 9.2 mph - N/A   Overcast
10:53 AM 78.1 °F - 73.9 °F 87% 30.09 in 10.0 mi East 5.8 mph - N/A   Overcast
11:14 AM 80.6 °F 86.2 °F 75.2 °F 84% 30.09 in 10.0 mi ENE 4.6 mph - N/A   Overcast
11:53 AM 82.9 °F 90.8 °F 75.9 °F 79% 30.08 in 10.0 mi Calm Calm - N/A   Overcast
12:10 PM 82.4 °F 89.5 °F 75.2 °F 79% 30.07 in 10.0 mi East 6.9 mph - N/A   Mostly Cloudy
12:18 PM 82.4 °F 89.5 °F 75.2 °F 79% 30.07 in 10.0 mi ENE 6.9 mph - 0.00 in Rain Light Rain
12:37 PM 82.4 °F 90.9 °F 77.0 °F 84% 30.08 in 10.0 mi East 4.6 mph - 0.00 in Rain , Thunderstorm Light Rain
12:51 PM 80.6 °F 87.1 °F 77.0 °F 89% 30.07 in 1.5 mi Calm Calm - 0.10 in Rain , Thunderstorm Heavy Thunderstorms and Rain
12:53 PM 80.1 °F 85.8 °F 77.0 °F 90% 30.07 in 1.0 mi WSW 4.6 mph - 0.13 in Rain , Thunderstorm Heavy Thunderstorms and Rain
1:03 PM 75.2 °F - 71.6 °F 89% 30.09 in 4.0 mi West 9.2 mph - 0.02 in Rain , Thunderstorm Light Thunderstorms and Rain
1:12 PM 77.0 °F - 68.0 °F 74% 30.08 in 5.0 mi WNW 17.3 mph 25.3 mph 0.02 in Thunderstorm Unknown
1:18 PM 73.4 °F - 68.0 °F 83% 30.08 in 1.8 mi NNW 17.3 mph 28.8 mph 0.17 in Rain , Thunderstorm Thunderstorms and Rain
1:27 PM 73.4 °F - 69.8 °F 88% 30.13 in 1.0 mi SE 18.4 mph 27.6 mph 0.33 in Rain , Thunderstorm Light Thunderstorms and Rain
1:35 PM 73.4 °F - 71.6 °F 94% 30.10 in 0.5 mi North 11.5 mph 27.6 mph 0.78 in Fog , Rain , Thunderstorm Heavy Thunderstorms and Rain
1:43 PM 73.4 °F - 71.6 °F 94% 30.09 in 2.5 mi NNE 4.6 mph - 0.78 in Rain , Thunderstorm Light Thunderstorms and Rain
1:50 PM 75.2 °F - 71.6 °F 89% 30.09 in 10.0 mi NE 3.5 mph - 0.78 in Thunderstorm Mostly Cloudy
1:53 PM 75.0 °F - 72.0 °F 90% 30.09 in 10.0 mi Calm Calm - 0.78 in Thunderstorm Mostly Cloudy
2:09 PM 75.2 °F - 73.4 °F 94% 30.09 in 10.0 mi ENE 6.9 mph - 0.00 in Rain Light Rain
2:53 PM 78.1 °F - 73.9 °F 87% 30.06 in 10.0 mi Calm Calm - 0.00 in Rain Light Rain
3:53 PM 81.0 °F 87.3 °F 75.9 °F 85% 30.05 in 10.0 mi Calm Calm - 0.00 in   Partly Cloudy
4:53 PM 75.9 °F - 72.0 °F 87% 30.07 in 10.0 mi NW 11.5 mph - N/A   Mostly Cloudy
5:03 PM 75.2 °F - 71.6 °F 89% 30.09 in 9.0 mi WNW 4.6 mph - 0.01 in Rain , Thunderstorm Light Rain
5:13 PM 73.4 °F - 73.4 °F 100% 30.09 in 5.0 mi NW 8.1 mph - 0.04 in Rain , Thunderstorm Rain
5:23 PM 73.4 °F - 71.6 °F 94% 30.12 in 4.0 mi WSW 13.8 mph - 0.11 in Rain Light Rain
5:25 PM 73.4 °F - 73.4 °F 100% 30.10 in 1.2 mi WSW 10.4 mph - 0.21 in Rain Heavy Rain
5:33 PM 73.4 °F - 71.6 °F 94% 30.10 in 0.8 mi West 12.7 mph 18.4 mph 0.26 in Rain Rain
5:35 PM 73.4 °F - 71.6 °F 94% 30.10 in 1.5 mi West 11.5 mph - 0.26 in Rain Light Rain
5:37 PM 73.4 °F - 71.6 °F 94% 30.10 in 3.0 mi West 8.1 mph 18.4 mph 0.27 in Rain Light Rain
5:44 PM 73.4 °F - 71.6 °F 94% 30.10 in 10.0 mi WNW 11.5 mph - 0.27 in Rain , Thunderstorm Light Rain
5:53 PM 73.0 °F - 71.1 °F 93% 30.09 in 10.0 mi NW 9.2 mph - 0.27 in Rain , Thunderstorm Light Rain
5:59 PM 73.4 °F - 71.6 °F 94% 30.09 in 10.0 mi WNW 6.9 mph - 0.00 in   Mostly Cloudy
6:12 PM 73.4 °F - 71.6 °F 94% 30.09 in 10.0 mi Calm Calm - 0.00 in Thunderstorm Thunderstorm
6:29 PM 73.4 °F - 69.8 °F 88% 30.09 in 10.0 mi Calm Calm - 0.00 in   Scattered Clouds
6:53 PM 73.0 °F - 71.1 °F 93% 30.08 in 10.0 mi ENE 3.5 mph - 0.00 in Rain Light Rain
7:53 PM 72.0 °F - 71.1 °F 97% 30.04 in 10.0 mi ENE 4.6 mph - 0.06 in   Scattered Clouds
8:53 PM 72.0 °F - 71.1 °F 97% 30.06 in 10.0 mi Calm Calm - N/A   Clear
9:53 PM 71.1 °F - 70.0 °F 96% 30.08 in 10.0 mi Calm Calm - 0.01 in   Clear
10:13 PM 71.6 °F - 69.8 °F 94% 30.08 in 10.0 mi ENE 5.8 mph - N/A   Partly Cloudy
10:53 PM 72.0 °F - 71.1 °F 97% 30.09 in 10.0 mi ENE 6.9 mph - N/A   Scattered Clouds
11:02 PM 71.6 °F - 71.6 °F 100% 30.09 in 10.0 mi ENE 6.9 mph - N/A   Mostly Cloudy
11:10 PM 71.6 °F - 71.6 °F 100% 30.08 in 10.0 mi ENE 5.8 mph - N/A   Mostly Cloudy
11:53 PM 72.0 °F - 71.1 °F 97% 30.08 in 10.0 mi East 3.5 mph - N/A   Mostly Cloudy